Weather in Barashevo

Russia / Republic of Mordovia     54°32′06″N   42°52′47″E
temp.,
°C
wind,
m/s
gust,
m/s
humid.,
%
clouds,
%
prec.,
mm/h
press.,
hPa
HPBL,
m
7 march, sun
sun700:00−13w22920 0.0 101420
03:00−15wsw23970 0.0 101459
06:00−15sw359881 0.0 1013110
09:00−10ssw5119189 0.0 1010375
12:00−5ssw71382100 0.0 10061024
15:00−5sw81693100 1.3 10011304
18:00−4sw71593100 1.9 9971229
21:00−3sw61395100 3.3 9941049
8 march, mon
mon800:00−2wsw71384100 1.4 992949
03:00−9wsw3129298 1.4 995401
06:00−9w61586100 0.1 997774
09:00−8wsw499297 0.1 999468
12:00−5sw588894 0.1 999894
15:00−4wsw6108998 0.5 10001165
18:00−7w41088100 0.5 1001497
21:00−11w399387 0.5 1004206
9 march, tue
tue900:00−14wnw239740 0.0 100678
03:00−16wnw239857 0.0 100878
06:00−17wnw239882 0.0 101051
09:00−14nw249590 0.1 1012244
12:00−10nw2490100 0.1 1012532
15:00−9nw3587100 0.2 1013765
18:00−12nnw3694100 0.1 1014237
21:00−17nw269798 0.2 1017134
10 march, wed
wed1000:00−19nw2310094 0.1 101869
03:00−21nw2510093 0.1 1019117
06:00−22nw379999 0.1 1021193
09:00−21nnw369699 0.1 1023285
12:00−18nnw358896 0.0 1024614
15:00−16nw358698 0.1 1025749
18:00−20nw2395100 0.0 102568
21:00−23nw239550 0.0 102720
11 march, thu
thu1100:00−24wnw22970 0.0 102821
03:00−24w23930 0.0 102853
06:00−25w36940 0.0 1029101
09:00−19w36920 0.0 1029242
12:00−13w37860 0.0 1029357
15:00−10w36810 0.0 1028441
18:00−14sw23900 0.0 102822
21:00−18ssw35880 0.0 102998